Weather History for Galena, AK

Change the Weather History Date:

Friday, October 26, 2012

  Actual Average Record
Temperature  
Mean Temperature 24 °F -  
Max Temperature 30 °F 21 °F 39 °F (2002)
Min Temperature 19 °F 8 °F -25 °F (1970)
Degree Days  
Heating Degree Days 40    
Moisture  
Dew Point 19 °F    
Average Humidity 78    
Maximum Humidity 89    
Minimum Humidity 66    
Precipitation  
Precipitation 0.00 in - - ()
Sea Level Pressure  
Sea Level Pressure 30.49 in    
Wind  
Wind Speed 3 mph (SE)    
Max Wind Speed 6 mph    
Max Gust Speed -    
Visibility 10 miles    
Events      
Averages and records for this station are not official NWS values.
T = Trace of Precipitation, MM = Missing Value Source: NWS Daily Summary

Daily Weather History Graph

Daily Weather History Graph

Search for Another Location

Airport:

Trip Planner

Search our weather history database for the weather conditions in past years. The results will help you decide how hot, cold, wet, or windy it might be!

Date:

Astronomy

Oct. 26, 2012 Rise Set
Actual Time 9:57 AM AKDT 6:24 PM AKDT
Civil Twilight 9:04 AM AKDT 7:17 PM AKDT
Nautical Twilight 8:06 AM AKDT 8:14 PM AKDT
Astronomical Twilight 7:10 AM AKDT 9:11 PM AKDT
Moon 5:26 PM AKDT (10/26) 6:13 AM AKDT (10/26)
Length of Visible Light 10h 13m
Length of Day
8h 27m
Waxing Gibbous, 92% of the Moon is Illuminated
Oct 26
Waxing Gibbous
Oct 29
Full
Nov 6
Last Quarter
Nov 13
New
Nov 20
First Quarter

Hourly Weather History & Observations

Time (AKDT) Temp. Windchill Dew Point Humidity Pressure Visibility Wind Dir Wind Speed Gust Speed Precip Events Conditions
12:58 AM 21.9 °F 15.7 °F 18.0 °F 85% 30.58 in 10.0 mi SSW 4.6 mph - N/A   Overcast
1:58 AM 21.0 °F 14.6 °F 17.1 °F 85% 30.57 in 10.0 mi SSE 4.6 mph - N/A   Overcast
2:58 AM 21.9 °F - 18.0 °F 85% 30.56 in 10.0 mi Calm Calm - N/A   Overcast
3:58 AM 21.9 °F 15.7 °F 18.0 °F 85% 30.54 in 10.0 mi SSE 4.6 mph - N/A   Overcast
4:58 AM 23.0 °F 15.8 °F 18.0 °F 81% 30.54 in 10.0 mi SE 5.8 mph - N/A   Overcast
5:58 AM 23.0 °F - 18.0 °F 81% 30.56 in 10.0 mi Calm Calm - N/A   Overcast
6:58 AM 24.1 °F 19.7 °F 19.0 °F 81% 30.53 in 10.0 mi ESE 3.5 mph - N/A   Overcast
7:58 AM 24.1 °F 19.7 °F 19.0 °F 81% 30.52 in 10.0 mi South 3.5 mph - N/A   Overcast
8:58 AM 24.1 °F 17.0 °F 19.0 °F 81% 30.51 in 10.0 mi SE 5.8 mph - N/A   Overcast
9:58 AM 24.1 °F 18.2 °F 19.0 °F 81% 30.50 in 10.0 mi SE 4.6 mph - N/A   Overcast
10:58 AM 25.0 °F 20.7 °F 19.0 °F 78% 30.51 in 10.0 mi SE 3.5 mph - N/A   Overcast
11:58 AM 25.0 °F 19.3 °F 19.0 °F 78% 30.50 in 10.0 mi SE 4.6 mph - N/A   Overcast
12:58 PM 27.0 °F 21.6 °F 19.9 °F 75% 30.50 in 10.0 mi East 4.6 mph - N/A   Overcast
1:58 PM 28.0 °F 24.2 °F 21.0 °F 75% 30.49 in 10.0 mi ESE 3.5 mph - N/A   Overcast
2:58 PM 28.9 °F 25.2 °F 19.9 °F 69% 30.48 in 10.0 mi East 3.5 mph - N/A   Overcast
3:58 PM 28.9 °F 25.2 °F 19.9 °F 69% 30.46 in 10.0 mi East 3.5 mph - N/A   Overcast
4:58 PM 30.0 °F 26.5 °F 19.9 °F 66% 30.46 in 10.0 mi East 3.5 mph - N/A   Overcast
5:58 PM 30.0 °F - 19.9 °F 66% 30.45 in 10.0 mi Calm Calm - N/A   Overcast
6:58 PM 28.0 °F - 19.9 °F 72% 30.44 in 9.0 mi Calm Calm - N/A   Overcast
7:58 PM 28.0 °F - 21.0 °F 75% 30.43 in 10.0 mi Calm Calm - N/A   Overcast
8:58 PM 25.0 °F - 19.0 °F 78% 30.43 in 10.0 mi Calm Calm - N/A   Partly Cloudy
9:58 PM 19.9 °F - 14.0 °F 78% 30.42 in 8.0 mi Calm Calm - N/A   Clear
10:58 PM 21.9 °F 17.2 °F 19.0 °F 89% 30.41 in 10.0 mi SSE 3.5 mph - N/A   Clear
11:58 PM 21.0 °F - 18.0 °F 88% 30.41 in 10.0 mi Calm Calm - N/A   Clear